N172SB KDPA-KGYY

Flight info

Callsign N172SB
Flight time 0h 32m
Altitude 4000
Route DCT JOT/N0112F030
Aircraft C172/L-SFG/C

Departure

Time 2026-04-23 18:06
Airport Dupage Airport (KDPA)

Arrival

Time 2026-04-23 18:38
Airport Gary/Chicago International Airport (KGYY)
Time Latitude Longitude Altitude Speed Heading
2026-04-23 17:58 41.91546 -88.26152 754 ft 0 kts 187°
2026-04-23 18:02 41.91538 -88.26153 754 ft 2 kts 181°
2026-04-23 18:02 41.91522 -88.26110 754 ft 7 kts 96°
2026-04-23 18:02 41.91517 -88.26017 754 ft 12 kts 94°
2026-04-23 18:02 41.91507 -88.25894 754 ft 13 kts 97°
2026-04-23 18:03 41.91497 -88.25758 754 ft 15 kts 95°
2026-04-23 18:03 41.91486 -88.25611 754 ft 16 kts 97°
2026-04-23 18:03 41.91472 -88.25452 754 ft 17 kts 98°
2026-04-23 18:03 41.91459 -88.25285 754 ft 18 kts 98°
2026-04-23 18:04 41.91444 -88.25110 754 ft 19 kts 96°
2026-04-23 18:04 41.91431 -88.24934 754 ft 18 kts 96°
2026-04-23 18:04 41.91420 -88.24802 754 ft 3 kts 95°
2026-04-23 18:04 41.91420 -88.24800 754 ft 0 kts 97°
2026-04-23 18:05 41.91420 -88.24799 754 ft 1 kts 98°
2026-04-23 18:05 41.91414 -88.24726 754 ft 12 kts 102°
2026-04-23 18:05 41.91349 -88.24704 754 ft 26 kts 193°
2026-04-23 18:06 41.91014 -88.24822 816 ft 60 kts 194°
2026-04-23 18:06 41.90626 -88.24959 1042 ft 58 kts 188°
2026-04-23 18:06 41.90243 -88.25073 1278 ft 55 kts 193°
2026-04-23 18:06 41.89884 -88.25186 1498 ft 54 kts 189°
2026-04-23 18:07 41.89547 -88.24925 1655 ft 74 kts 125°
2026-04-23 18:07 41.89544 -88.24167 1829 ft 89 kts 98°
2026-04-23 18:07 41.89640 -88.23295 1937 ft 98 kts 93°
2026-04-23 18:07 41.89622 -88.22395 1985 ft 101 kts 105°
2026-04-23 18:08 41.89666 -88.21763 2071 ft 105 kts 92°
2026-04-23 18:08 41.89740 -88.20431 2120 ft 103 kts 108°
2026-04-23 18:08 41.89613 -88.19525 2209 ft 100 kts 111°
2026-04-23 18:08 41.89530 -88.18572 2262 ft 106 kts 101°
2026-04-23 18:09 41.89611 -88.17527 2256 ft 116 kts 88°
2026-04-23 18:09 41.89635 -88.16428 2163 ft 118 kts 106°
2026-04-23 18:09 41.89595 -88.15307 2047 ft 124 kts 103°
2026-04-23 18:09 41.89519 -88.14139 1897 ft 126 kts 99°
2026-04-23 18:10 41.89456 -88.12994 1760 ft 119 kts 110°
2026-04-23 18:10 41.89351 -88.11934 1687 ft 119 kts 106°
2026-04-23 18:10 41.89305 -88.10868 1687 ft 111 kts 109°
2026-04-23 18:10 41.89166 -88.09892 1678 ft 104 kts 114°
2026-04-23 18:11 41.89057 -88.08929 1665 ft 107 kts 104°
2026-04-23 18:11 41.89028 -88.07933 1680 ft 105 kts 108°
2026-04-23 18:11 41.89020 -88.06946 1686 ft 107 kts 103°
2026-04-23 18:11 41.88877 -88.05998 1710 ft 99 kts 118°
2026-04-23 18:12 41.88733 -88.05092 1739 ft 100 kts 116°
2026-04-23 18:12 41.88533 -88.04196 1788 ft 98 kts 117°
2026-04-23 18:12 41.88409 -88.03269 1766 ft 107 kts 109°
2026-04-23 18:12 41.88377 -88.02273 1817 ft 110 kts 95°
2026-04-23 18:13 41.88370 -88.01266 1841 ft 104 kts 115°
2026-04-23 18:13 41.88123 -88.00376 1800 ft 104 kts 124°
2026-04-23 18:13 41.87868 -87.99466 1809 ft 106 kts 121°
2026-04-23 18:13 41.87719 -87.98482 1840 ft 108 kts 108°
2026-04-23 18:14 41.87662 -87.97462 1817 ft 110 kts 109°
2026-04-23 18:14 41.87526 -87.96468 1852 ft 107 kts 112°
2026-04-23 18:14 41.87402 -87.95480 1847 ft 109 kts 115°
2026-04-23 18:14 41.87264 -87.94456 1845 ft 110 kts 110°
2026-04-23 18:15 41.87173 -87.93422 1850 ft 112 kts 109°
2026-04-23 18:15 41.87040 -87.92423 1845 ft 110 kts 113°
2026-04-23 18:15 41.86982 -87.91358 1832 ft 114 kts 103°
2026-04-23 18:15 41.86854 -87.90337 1825 ft 110 kts 112°
2026-04-23 18:16 41.86771 -87.89291 1775 ft 117 kts 100°
2026-04-23 18:16 41.86764 -87.88195 1768 ft 114 kts 98°
2026-04-23 18:16 41.86842 -87.87082 1698 ft 122 kts 89°
2026-04-23 18:17 41.87063 -87.84856 1616 ft 122 kts 90°
2026-04-23 18:17 41.87182 -87.83751 1612 ft 119 kts 91°
2026-04-23 18:17 41.87294 -87.82624 1558 ft 122 kts 90°
2026-04-23 18:17 41.87456 -87.81540 1647 ft 113 kts 87°
2026-04-23 18:18 41.87645 -87.80488 1621 ft 119 kts 84°
2026-04-23 18:18 41.87911 -87.79428 1615 ft 124 kts 75°
2026-04-23 18:18 41.88255 -87.78339 1573 ft 126 kts 76°
2026-04-23 18:18 41.88621 -87.77305 1631 ft 125 kts 70°
2026-04-23 18:19 41.89094 -87.76304 1640 ft 126 kts 66°
2026-04-23 18:19 41.89561 -87.75322 1691 ft 124 kts 59°
2026-04-23 18:19 41.90089 -87.74403 1701 ft 125 kts 56°
2026-04-23 18:19 41.90615 -87.73484 1708 ft 124 kts 63°
2026-04-23 18:20 41.91092 -87.72514 1681 ft 128 kts 63°
2026-04-23 18:20 41.91605 -87.71549 1692 ft 127 kts 56°
2026-04-23 18:20 41.92154 -87.70576 1652 ft 132 kts 53°
2026-04-23 18:20 41.92833 -87.69740 1582 ft 137 kts 36°
2026-04-23 18:21 41.93657 -87.69107 1525 ft 139 kts 37°
2026-04-23 18:21 41.94314 -87.68235 1514 ft 121 kts 52°
2026-04-23 18:21 41.94907 -87.67465 1380 ft 117 kts 62°
2026-04-23 18:21 41.94888 -87.66547 1341 ft 100 kts 135°
2026-04-23 18:22 41.94587 -87.65685 1363 ft 102 kts 124°
2026-04-23 18:22 41.94375 -87.64763 1518 ft 104 kts 107°
2026-04-23 18:22 41.94433 -87.63773 1584 ft 117 kts 91°
2026-04-23 18:22 41.94186 -87.62871 1647 ft 94 kts 150°
2026-04-23 18:23 41.93843 -87.62547 1700 ft 88 kts 158°
2026-04-23 18:23 41.92518 -87.61690 1740 ft 95 kts 159°
2026-04-23 18:24 41.91295 -87.61033 1723 ft 97 kts 169°
2026-04-23 18:24 41.90646 -87.60762 1690 ft 98 kts 166°
2026-04-23 18:24 41.89991 -87.60429 1632 ft 103 kts 163°
2026-04-23 18:25 41.88714 -87.60035 1701 ft 93 kts 174°
2026-04-23 18:25 41.88065 -87.59826 1674 ft 98 kts 168°
2026-04-23 18:25 41.87410 -87.59688 1736 ft 90 kts 180°
2026-04-23 18:25 41.86781 -87.59603 1738 ft 95 kts 172°
2026-04-23 18:26 41.86114 -87.59468 1729 ft 94 kts 183°
2026-04-23 18:26 41.85460 -87.59430 1696 ft 98 kts 175°
2026-04-23 18:26 41.84796 -87.59350 1722 ft 94 kts 180°
2026-04-23 18:26 41.84158 -87.59431 1734 ft 93 kts 190°
2026-04-23 18:27 41.83504 -87.59236 1721 ft 95 kts 163°
2026-04-23 18:27 41.82936 -87.58809 1727 ft 99 kts 154°
2026-04-23 18:27 41.82359 -87.58250 1706 ft 100 kts 155°
2026-04-23 18:27 41.81738 -87.57900 1691 ft 97 kts 169°
2026-04-23 18:28 41.81100 -87.57629 1716 ft 95 kts 166°
2026-04-23 18:28 41.80519 -87.57120 1679 ft 103 kts 146°
2026-04-23 18:28 41.79928 -87.56685 1692 ft 97 kts 162°
2026-04-23 18:28 41.79333 -87.56225 1683 ft 99 kts 156°
2026-04-23 18:29 41.78743 -87.55734 1684 ft 99 kts 156°
2026-04-23 18:29 41.78164 -87.55251 1683 ft 99 kts 155°
2026-04-23 18:29 41.77568 -87.54754 1688 ft 101 kts 156°
2026-04-23 18:29 41.76980 -87.54254 1687 ft 100 kts 154°
2026-04-23 18:30 41.76385 -87.53756 1685 ft 100 kts 155°
2026-04-23 18:30 41.75796 -87.53258 1690 ft 100 kts 153°
2026-04-23 18:30 41.75215 -87.52766 1687 ft 99 kts 157°
2026-04-23 18:30 41.74624 -87.52269 1691 ft 98 kts 153°
2026-04-23 18:31 41.74044 -87.51784 1690 ft 99 kts 155°
2026-04-23 18:31 41.73452 -87.51285 1684 ft 101 kts 155°
2026-04-23 18:31 41.72861 -87.50785 1691 ft 99 kts 155°
2026-04-23 18:31 41.72275 -87.50290 1673 ft 100 kts 156°
2026-04-23 18:32 41.71699 -87.49800 1677 ft 97 kts 156°
2026-04-23 18:32 41.71124 -87.49323 1675 ft 97 kts 154°
2026-04-23 18:32 41.70550 -87.48837 1673 ft 97 kts 154°
2026-04-23 18:32 41.69976 -87.48356 1691 ft 98 kts 156°
2026-04-23 18:33 41.69397 -87.47868 1695 ft 98 kts 155°
2026-04-23 18:33 41.68816 -87.47382 1691 ft 99 kts 154°
2026-04-23 18:33 41.68226 -87.46894 1684 ft 96 kts 160°
2026-04-23 18:33 41.67598 -87.46664 1685 ft 93 kts 171°
2026-04-23 18:34 41.66957 -87.46504 1686 ft 93 kts 173°
2026-04-23 18:34 41.66319 -87.46346 1686 ft 94 kts 174°
2026-04-23 18:34 41.65673 -87.46189 1686 ft 94 kts 174°
2026-04-23 18:34 41.65023 -87.46036 1681 ft 94 kts 174°
2026-04-23 18:35 41.64386 -87.45879 1683 ft 94 kts 173°
2026-04-23 18:35 41.63720 -87.45718 1576 ft 101 kts 172°
2026-04-23 18:35 41.63010 -87.45558 1484 ft 102 kts 175°
2026-04-23 18:35 41.62329 -87.45396 1476 ft 98 kts 173°
2026-04-23 18:36 41.61665 -87.45218 1459 ft 96 kts 172°
2026-04-23 18:36 41.61021 -87.44981 1450 ft 99 kts 161°
2026-04-23 18:36 41.60453 -87.44453 1454 ft 102 kts 143°
2026-04-23 18:36 41.60027 -87.43722 1464 ft 82 kts 137°
2026-04-23 18:37 41.59632 -87.43430 1428 ft 54 kts 176°
2026-04-23 18:37 41.59345 -87.43072 1333 ft 68 kts 121°
2026-04-23 18:37 41.59417 -87.42390 1243 ft 78 kts 68°
2026-04-23 18:37 41.59945 -87.42248 1136 ft 85 kts 348°
2026-04-23 18:38 41.60532 -87.42203 894 ft 84 kts 21°
2026-04-23 18:38 41.61077 -87.41925 646 ft 82 kts 25°
2026-04-23 18:38 41.61530 -87.41685 590 ft 50 kts 23°
2026-04-23 18:38 41.61641 -87.41627 590 ft 0 kts 20°
2026-04-23 18:39 41.61755 -87.41571 590 ft 49 kts 19°
2026-04-23 18:39 41.62234 -87.41337 628 ft 86 kts 21°
2026-04-23 18:39 41.62796 -87.41090 832 ft 89 kts
2026-04-23 18:39 41.63407 -87.41082 983 ft 94 kts 35°
2026-04-23 18:40 41.63325 -87.40722 1005 ft 58 kts 207°
2026-04-23 18:40 41.63023 -87.40932 896 ft 49 kts 200°
2026-04-23 18:40 41.62701 -87.41082 801 ft 51 kts 198°
2026-04-23 18:40 41.62367 -87.41258 677 ft 50 kts 195°
2026-04-23 18:41 41.62074 -87.41406 590 ft 28 kts 198°
2026-04-23 18:41 41.62037 -87.41423 590 ft 0 kts 198°
2026-04-23 18:41 41.62021 -87.41424 590 ft 3 kts 207°
2026-04-23 18:41 41.62038 -87.41427 590 ft 12 kts 35°
2026-04-23 18:42 41.62048 -87.41346 590 ft 7 kts 111°
2026-04-23 18:42 41.62042 -87.41328 590 ft 0 kts 128°